Location: Clarion
(42.7316°N, 93.7330°W)
Time: 02:22:49
(UTC+00:00)

Cosmos 2082 Rocket - Pass Details

Date: 22 April 2026
Orbit: 831 x 853 km, 71.0° (Epoch: 20 May)

Event Time Altitude Azimuth Distance (km) Brightness Sun altitude
Exits shadow 06:05:03 17° 64° (ENE) 2,006 4.3 -35.0°
Drops below altitude 10° 06:06:52 10° 49° (NE) 2,488 5.0 -35.0°
Sets 06:09:44 0° 37° (NE) 3,429 6.0 -35.0°
